Find Starlink 37698

NORAD ID: 100423 Int'l Des: 2026-192 Owner: SPXS Country: US Constellation: starlink operational

Current View

Loading 3D Globe...

About Starlink 37698

Starlink 37698 (NORAD 100423) is a starlink constellation satellite launched Aug 21, 2026 by SPXS of US. with a mass of 575.00 kg.

Upcoming Passes

Passes for default location (London). Set your location on the main map for personalized predictions.

Altitude History

Loading altitude history...

Two-Line Element Set

1 A0423U 26192V 26255.67846198 -.01715752 00000-0 -12921-1 0 9994
2 A0423 53.1594 343.6853 0000628 342.6490 17.4509 15.74806596 4690
Epoch: Sep 12, 2026 • Age: 13 hours

Current Status

Altitude 357.4 km
Apogee / Perigee N/A
Velocity 7.70 km/s
Sub-Earth Point 53.00°N, 14.35°E
Launch Date Aug 21, 2026
Age 22 days
Type internet

Technical Details

Classification Payload
Mass 575.00 kg
Dry Mass 530.00 kg
Total Mass 575.00 kg
Length 0.30 m
Diameter 4.10 m
Span 29.00 m
Shape Box + pan
Manufacturer SPXS
Bus Type Starlink V2MO
Phase Status In Orbit
Owner/State SPXS/US

Most Searched